User: anonymous   Login
Location: Unspecified
(0.0000°N, 0.0000°E)
Time: 02:41:07
(UTC+02:00)
Language:

Iridium 47 - Orbit

View from above orbital plane
View from above orbital plane
View from above satellite
View from above satellite

Ground track
Ground track

The orbit data is extracted from the following two-line orbital elements,

1 25106U 97082C   17294.30144659  .00000213  00000-0  69024-4 0  9996
2 25106  86.4011 202.5778 0002051  76.9066 283.2359 14.34224287 38447
Epoch (UTC): 21 October 2017 07:14:04
Eccentricity: 0.0002051
inclination: 86.4011°
perigee height: 776 km
apogee height: 779 km
right ascension of ascending node: 202.5778°
argument of perigee: 76.9066°
revolutions per day: 14.34224287
mean anomaly at epoch: 283.2359°
orbit number at epoch: 3844

The dashed part of the orbit path shows where the satellite is in the earth's shadow,  

DLR